This demonstration page uses our WeatherBlox Daily Observations layout. Learn more.

Left ArrowRight Arrow

Hourly Observations for February 16, 2021

Temp ( °F °C ) Dew Point ( °F °C ) Humidity (%) Winds ( mph kmh ) Pressure ( in mb ) Visibility ( mi km ) Precip ( " mm )
12:54 am 00:54 Clear -24 -31.1 -30 -34.4 73 73 N 5 7 30.36 1028 10 16.0934 0 0
1:54 am 01:54 Clear -22 -30 -28 -33.3 73 73 NNW 3 6 30.35 1028 10 16.0934 0 0
3:54 am 03:54 Clear -25 -31.7 -31 -35 72 72 N 5 7 30.32 1027 10 16.0934 0 0
4:54 am 04:54 Clear -26 -32.2 -32 -35.6 72 72 N 5 7 30.32 1027 10 16.0934 0 0
5:54 am 05:54 Clear -27 -32.8 -33 -36.1 72 72 NW 3 6 30.32 1027 9 14.48406 0 0
6:54 am 06:54 Clear -26 -32.2 -32 -35.6 72 72 N 5 7 30.32 1027 10 16.0934 0 0
7:54 am 07:54 Hazy -27 -32.8 -34 -36.7 68 68 NNE 5 7 30.32 1027 6 9.65604 0 0
8:54 am 08:54 Sunny -23 -30.6 -27 -32.8 81 81 Calm 30.33 1027 10 16.0934 0 0
9:54 am 09:54 Partly Cloudy -16 -26.7 -23 -30.6 70 70 Calm 30.33 1027 10 16.0934 0 0
10:54 am 10:54 Partly Cloudy -10 -23.3 -18 -27.8 67 67 Calm 30.34 1027 10 16.0934 0 0
11:54 am 11:54 Sunny -3 -19.4 -16 -26.7 53 53 Calm 30.33 1027 10 16.0934 0 0
12:54 pm 12:54 Partly Cloudy -3 -19.4 -20 -28.9 43 43 SSW 8 13 30.32 1027 10 16.0934 0 0
1:54 pm 13:54 Cloudy -1 -18.3 -17 -27.2 46 46 S 3 6 30.28 1025 10 16.0934 0 0
2:54 pm 14:54 Mostly Sunny 1 -17.2 -15 -26.1 46 46 S 3 6 30.26 1025 10 16.0934 0 0
3:54 pm 15:54 Mostly Sunny 2 -16.7 -13 -25 49 49 ENE 8 13 30.24 1024 10 16.0934 0 0
4:54 pm 16:54 Mostly Sunny 2 -16.7 -14 -25.6 46 46 SE 8 13 30.25 1025 10 16.0934 0 0
5:54 pm 17:54 Partly Cloudy 0 -17.8 -14 -25.6 51 51 ESE 8 13 30.27 1025 10 16.0934 0.001 0.001
6:54 pm 18:54 Clear -1 -18.3 -14 -25.6 53 53 SE 7 11 30.28 1025 10 16.0934 0 0
7:54 pm 19:54 Mostly Cloudy -1 -18.3 -13 -25 56 56 SE 6 9 30.29 1026 10 16.0934 0 0
8:54 pm 20:54 Cloudy 0 -17.8 -13 -25 54 54 SSE 9 15 30.29 1026 10 16.0934 0 0
9:54 pm 21:54 Cloudy 1 -17.2 -12 -24.4 54 54 SSE 8 13 30.29 1026 10 16.0934 0 0
10:54 pm 22:54 Cloudy 1 -17.2 -11 -23.9 56 56 SSE 6 9 30.28 1026 10 16.0934 0 0
11:54 pm 23:54 Cloudy 2 -16.7 -10 -23.3 57 57 SSE 7 11 30.27 1025 10 16.0934 0 0

Powered by AerisWeather